Year,Month,Day,Hour,Minute,Value (Times are PST for temperature in C)
2014,06,08,00,00,14.10
2014,06,08,00,01,14.00
2014,06,08,00,02,14.00
2014,06,08,00,03,14.00
2014,06,08,00,04,13.90
2014,06,08,00,05,13.90
2014,06,08,00,06,13.90
2014,06,08,00,07,13.80
2014,06,08,00,08,13.80
2014,06,08,00,09,13.80
2014,06,08,00,10,13.80
2014,06,08,00,11,13.80
2014,06,08,00,12,13.80
2014,06,08,00,13,13.80
2014,06,08,00,14,13.70
2014,06,08,00,15,13.70
2014,06,08,00,16,13.70
2014,06,08,00,17,13.70
2014,06,08,00,18,13.70
2014,06,08,00,19,13.70
2014,06,08,00,20,13.70
2014,06,08,00,21,13.70
2014,06,08,00,22,13.70
2014,06,08,00,23,13.60
2014,06,08,00,24,13.60
2014,06,08,00,25,13.60
2014,06,08,00,26,13.60
2014,06,08,00,27,13.60
2014,06,08,00,28,13.60
2014,06,08,00,29,13.60
2014,06,08,00,30,13.50
2014,06,08,00,31,13.50
2014,06,08,00,32,13.40
2014,06,08,00,33,13.40
2014,06,08,00,34,13.30
2014,06,08,00,35,13.30
2014,06,08,00,36,13.30
2014,06,08,00,37,13.30
2014,06,08,00,38,13.30
2014,06,08,00,39,13.30
2014,06,08,00,40,13.20
2014,06,08,00,41,13.30
2014,06,08,00,42,13.20
2014,06,08,00,43,13.20
2014,06,08,00,44,13.20
2014,06,08,00,45,13.20
2014,06,08,00,46,13.20
2014,06,08,00,47,13.20
2014,06,08,00,48,13.20
2014,06,08,00,49,13.20
2014,06,08,00,50,13.20
2014,06,08,00,51,13.20
2014,06,08,00,52,13.20
2014,06,08,00,53,13.20
2014,06,08,00,54,13.20
2014,06,08,00,55,13.10
2014,06,08,00,56,13.10
2014,06,08,00,57,13.10
2014,06,08,00,58,13.00
2014,06,08,00,59,13.00
2014,06,08,01,00,12.90
2014,06,08,01,01,12.90
2014,06,08,01,02,12.90
2014,06,08,01,03,12.90
2014,06,08,01,04,12.90
2014,06,08,01,05,12.90
2014,06,08,01,06,12.90
2014,06,08,01,07,12.90
2014,06,08,01,08,12.80
2014,06,08,01,09,12.80
2014,06,08,01,10,12.80
2014,06,08,01,11,12.80
2014,06,08,01,12,12.90
2014,06,08,01,13,12.90
2014,06,08,01,14,12.90
2014,06,08,01,15,12.90
2014,06,08,01,16,13.00
2014,06,08,01,17,12.90
2014,06,08,01,18,13.00
2014,06,08,01,19,13.00
2014,06,08,01,20,13.00
2014,06,08,01,21,13.00
2014,06,08,01,22,12.90
2014,06,08,01,23,12.90
2014,06,08,01,24,12.90
2014,06,08,01,25,12.90
2014,06,08,01,26,12.80
2014,06,08,01,27,12.80
2014,06,08,01,28,12.80
2014,06,08,01,29,12.80
2014,06,08,01,30,12.80
2014,06,08,01,31,12.80
2014,06,08,01,32,12.80
2014,06,08,01,33,12.80
2014,06,08,01,34,12.80
2014,06,08,01,35,12.80
2014,06,08,01,36,12.80
2014,06,08,01,37,12.80
2014,06,08,01,38,12.80
2014,06,08,01,39,12.80
2014,06,08,01,40,12.80
2014,06,08,01,41,12.80
2014,06,08,01,42,12.80
2014,06,08,01,43,12.80
2014,06,08,01,44,12.80
2014,06,08,01,45,12.80
2014,06,08,01,46,12.70
2014,06,08,01,47,12.80
2014,06,08,01,48,12.70
2014,06,08,01,49,12.70
2014,06,08,01,50,12.70
2014,06,08,01,51,12.70
2014,06,08,01,52,12.70
2014,06,08,01,53,12.60
2014,06,08,01,54,12.60
2014,06,08,01,55,12.60
2014,06,08,01,56,12.60
2014,06,08,01,57,12.60
2014,06,08,01,58,12.60
2014,06,08,01,59,12.60
2014,06,08,02,00,12.70
2014,06,08,02,01,12.60
2014,06,08,02,02,12.60
2014,06,08,02,03,12.60
2014,06,08,02,04,12.60
2014,06,08,02,05,12.60
2014,06,08,02,06,12.60
2014,06,08,02,07,12.60
2014,06,08,02,08,12.70
2014,06,08,02,09,12.70
2014,06,08,02,10,12.60
2014,06,08,02,11,12.60
2014,06,08,02,12,12.60
2014,06,08,02,13,12.60
2014,06,08,02,14,12.60
2014,06,08,02,15,12.60
2014,06,08,02,16,12.60
2014,06,08,02,17,12.60
2014,06,08,02,18,12.60
2014,06,08,02,19,12.60
2014,06,08,02,20,12.60
2014,06,08,02,21,12.60
2014,06,08,02,22,12.60
2014,06,08,02,23,12.60
2014,06,08,02,24,12.50
2014,06,08,02,25,12.50
2014,06,08,02,26,12.50
2014,06,08,02,27,12.50
2014,06,08,02,28,12.40
2014,06,08,02,29,12.40
2014,06,08,02,30,12.40
2014,06,08,02,31,12.40
2014,06,08,02,32,12.40
2014,06,08,02,33,12.40
2014,06,08,02,34,12.40
2014,06,08,02,35,12.40
2014,06,08,02,36,12.40
2014,06,08,02,37,12.40
2014,06,08,02,38,12.40
2014,06,08,02,39,12.40
2014,06,08,02,40,12.40
2014,06,08,02,41,12.40
2014,06,08,02,42,12.30
2014,06,08,02,43,12.30
2014,06,08,02,44,12.30
2014,06,08,02,45,12.30
2014,06,08,02,46,12.30
2014,06,08,02,47,12.20
2014,06,08,02,48,12.20
2014,06,08,02,49,12.20
2014,06,08,02,50,12.20
2014,06,08,02,51,12.20
2014,06,08,02,52,12.20
2014,06,08,02,53,12.20
2014,06,08,02,54,12.20
2014,06,08,02,55,12.20
2014,06,08,02,56,12.20
2014,06,08,02,57,12.20
2014,06,08,02,58,12.20
2014,06,08,02,59,12.30
2014,06,08,03,00,12.30
2014,06,08,03,01,12.30
2014,06,08,03,02,12.30
2014,06,08,03,03,12.30
2014,06,08,03,04,12.30
2014,06,08,03,05,12.30
2014,06,08,03,06,12.40
2014,06,08,03,07,12.40
2014,06,08,03,08,12.40
2014,06,08,03,09,12.40
2014,06,08,03,10,12.40
2014,06,08,03,11,12.40
2014,06,08,03,12,12.40
2014,06,08,03,13,12.40
2014,06,08,03,14,12.40
2014,06,08,03,15,12.40
2014,06,08,03,16,12.40
2014,06,08,03,17,12.40
2014,06,08,03,18,12.40
2014,06,08,03,19,12.40
2014,06,08,03,20,12.40
2014,06,08,03,21,12.40
2014,06,08,03,22,12.40
2014,06,08,03,23,12.40
2014,06,08,03,24,12.40
2014,06,08,03,25,12.40
2014,06,08,03,26,12.40
2014,06,08,03,27,12.40
2014,06,08,03,28,12.40
2014,06,08,03,29,12.40
2014,06,08,03,30,12.40
2014,06,08,03,31,12.40
2014,06,08,03,32,12.40
2014,06,08,03,33,12.40
2014,06,08,03,34,12.40
2014,06,08,03,35,12.40
2014,06,08,03,36,12.40
2014,06,08,03,37,12.40
2014,06,08,03,38,12.40
2014,06,08,03,39,12.40
2014,06,08,03,40,12.40
2014,06,08,03,41,12.40
2014,06,08,03,42,12.40
2014,06,08,03,43,12.40
2014,06,08,03,44,12.40
2014,06,08,03,45,12.40
2014,06,08,03,46,12.40
2014,06,08,03,47,12.40
2014,06,08,03,48,12.40
2014,06,08,03,49,12.50
2014,06,08,03,50,12.50
2014,06,08,03,51,12.50
2014,06,08,03,52,12.50
2014,06,08,03,53,12.50
2014,06,08,03,54,12.60
2014,06,08,03,55,12.60
2014,06,08,03,56,12.60
2014,06,08,03,57,12.60
2014,06,08,03,58,12.60
2014,06,08,03,59,12.60
2014,06,08,04,00,12.60
2014,06,08,04,01,12.70
2014,06,08,04,02,12.70
2014,06,08,04,03,12.70
2014,06,08,04,04,12.70
2014,06,08,04,05,12.70
2014,06,08,04,06,12.70
2014,06,08,04,07,12.70
2014,06,08,04,08,12.70
2014,06,08,04,09,12.70
2014,06,08,04,10,12.70
2014,06,08,04,11,12.80
2014,06,08,04,12,12.80
2014,06,08,04,13,12.80
2014,06,08,04,14,12.80
2014,06,08,04,15,12.80
2014,06,08,04,16,12.80
2014,06,08,04,17,12.80
2014,06,08,04,18,12.80
2014,06,08,04,19,12.80
2014,06,08,04,20,12.80
2014,06,08,04,21,12.80
2014,06,08,04,22,12.80
2014,06,08,04,23,12.80
2014,06,08,04,24,12.90
2014,06,08,04,25,12.90
2014,06,08,04,26,12.90
2014,06,08,04,27,12.90
2014,06,08,04,28,12.90
2014,06,08,04,29,12.90
2014,06,08,04,30,13.00
2014,06,08,04,31,13.00
2014,06,08,04,32,13.00
2014,06,08,04,33,13.00
2014,06,08,04,34,13.00
2014,06,08,04,35,13.00
2014,06,08,04,36,13.10
2014,06,08,04,37,13.10
2014,06,08,04,38,13.10
2014,06,08,04,39,13.10
2014,06,08,04,40,13.10
2014,06,08,04,41,13.10
2014,06,08,04,42,13.10
2014,06,08,04,43,13.10
2014,06,08,04,44,13.10
2014,06,08,04,45,13.10
2014,06,08,04,46,13.10
2014,06,08,04,47,13.10
2014,06,08,04,48,13.20
2014,06,08,04,49,13.20
2014,06,08,04,50,13.20
2014,06,08,04,51,13.20
2014,06,08,04,52,13.20
2014,06,08,04,53,13.20
2014,06,08,04,54,13.20
2014,06,08,04,55,13.20
2014,06,08,04,56,13.20
2014,06,08,04,57,13.20
2014,06,08,04,58,13.20
2014,06,08,04,59,13.20
2014,06,08,05,00,13.10
2014,06,08,05,01,13.10
2014,06,08,05,02,13.10
2014,06,08,05,03,13.10
2014,06,08,05,04,13.10
2014,06,08,05,05,13.10
2014,06,08,05,06,13.20
2014,06,08,05,07,13.20
2014,06,08,05,08,13.20
2014,06,08,05,09,13.20
2014,06,08,05,10,13.20
2014,06,08,05,11,13.20
2014,06,08,05,12,13.20
2014,06,08,05,13,13.20
2014,06,08,05,14,13.20
2014,06,08,05,15,13.20
2014,06,08,05,16,13.20
2014,06,08,05,17,13.20
2014,06,08,05,18,13.20
2014,06,08,05,19,13.30
2014,06,08,05,20,13.30
2014,06,08,05,21,13.30
2014,06,08,05,22,13.30
2014,06,08,05,23,13.30
2014,06,08,05,24,13.30
2014,06,08,05,25,13.30
2014,06,08,05,26,13.30
2014,06,08,05,27,13.30
2014,06,08,05,28,13.30
2014,06,08,05,29,13.30
2014,06,08,05,30,13.30
2014,06,08,05,31,13.30
2014,06,08,05,32,13.30
2014,06,08,05,33,13.40
2014,06,08,05,34,13.40
2014,06,08,05,35,13.40
2014,06,08,05,36,13.40
2014,06,08,05,37,13.40
2014,06,08,05,38,13.40
2014,06,08,05,39,13.40
2014,06,08,05,40,13.40
2014,06,08,05,41,13.40
2014,06,08,05,42,13.40
2014,06,08,05,43,13.40
2014,06,08,05,44,13.40
2014,06,08,05,45,13.40
2014,06,08,05,46,13.40
2014,06,08,05,47,13.40
2014,06,08,05,48,13.40
2014,06,08,05,49,13.40
2014,06,08,05,50,13.40
2014,06,08,05,51,13.40
2014,06,08,05,52,13.40
2014,06,08,05,53,13.50
2014,06,08,05,54,13.50
2014,06,08,05,55,13.50
2014,06,08,05,56,13.50
2014,06,08,05,57,13.60
2014,06,08,05,58,13.60
2014,06,08,05,59,13.60
2014,06,08,06,00,13.60
2014,06,08,06,01,13.70
2014,06,08,06,02,13.70
2014,06,08,06,03,13.70
2014,06,08,06,04,13.70
2014,06,08,06,05,13.70
2014,06,08,06,06,13.70
2014,06,08,06,07,13.70
2014,06,08,06,08,13.70
2014,06,08,06,09,13.70
2014,06,08,06,10,13.70
2014,06,08,06,11,13.70
2014,06,08,06,12,13.80
2014,06,08,06,13,13.80
2014,06,08,06,14,13.80
2014,06,08,06,15,13.80
2014,06,08,06,16,13.80
2014,06,08,06,17,13.90
2014,06,08,06,18,13.90
2014,06,08,06,19,13.90
2014,06,08,06,20,14.00
2014,06,08,06,21,14.00
2014,06,08,06,22,14.00
2014,06,08,06,23,14.10
2014,06,08,06,24,14.10
2014,06,08,06,25,14.10
2014,06,08,06,26,14.10
2014,06,08,06,27,14.10
2014,06,08,06,28,14.10
2014,06,08,06,29,14.10
2014,06,08,06,30,14.10
2014,06,08,06,31,14.10
2014,06,08,06,32,14.20
2014,06,08,06,33,14.20
2014,06,08,06,34,14.20
2014,06,08,06,35,14.20
2014,06,08,06,36,14.20
2014,06,08,06,37,14.20
2014,06,08,06,38,14.30
2014,06,08,06,39,14.30
2014,06,08,06,40,14.30
2014,06,08,06,41,14.30
2014,06,08,06,42,14.30
2014,06,08,06,43,14.30
2014,06,08,06,44,14.30
2014,06,08,06,45,14.30
2014,06,08,06,46,14.30
2014,06,08,06,47,14.30
2014,06,08,06,48,14.30
2014,06,08,06,49,14.40
2014,06,08,06,50,14.40
2014,06,08,06,51,14.40
2014,06,08,06,52,14.50
2014,06,08,06,53,14.50
2014,06,08,06,54,14.50
2014,06,08,06,55,14.50
2014,06,08,06,56,14.60
2014,06,08,06,57,14.60
2014,06,08,06,58,14.60
2014,06,08,06,59,14.70
2014,06,08,07,00,14.70
2014,06,08,07,01,14.80
2014,06,08,07,02,14.80
2014,06,08,07,03,14.80
2014,06,08,07,04,14.80
2014,06,08,07,05,14.90
2014,06,08,07,06,15.00
2014,06,08,07,07,15.00
2014,06,08,07,08,15.00
2014,06,08,07,09,15.00
2014,06,08,07,10,15.00
2014,06,08,07,11,15.00
2014,06,08,07,12,15.00
2014,06,08,07,13,15.00
2014,06,08,07,14,15.00
2014,06,08,07,15,15.00
2014,06,08,07,16,15.00
2014,06,08,07,17,15.00
2014,06,08,07,18,15.00
2014,06,08,07,19,15.00
2014,06,08,07,20,15.00
2014,06,08,07,21,15.10
2014,06,08,07,22,15.10
2014,06,08,07,23,15.20
2014,06,08,07,24,15.20
2014,06,08,07,25,15.20
2014,06,08,07,26,15.30
2014,06,08,07,27,15.30
2014,06,08,07,28,15.30
2014,06,08,07,29,15.30
2014,06,08,07,30,15.30
2014,06,08,07,31,15.40
2014,06,08,07,32,15.40
2014,06,08,07,33,15.40
2014,06,08,07,34,15.40
2014,06,08,07,35,15.40
2014,06,08,07,36,15.50
2014,06,08,07,37,15.50
2014,06,08,07,38,15.50
2014,06,08,07,39,15.60
2014,06,08,07,40,15.60
2014,06,08,07,41,15.60
2014,06,08,07,42,15.60
2014,06,08,07,43,15.60
2014,06,08,07,44,15.70
2014,06,08,07,45,15.70
2014,06,08,07,46,15.70
2014,06,08,07,47,15.70
2014,06,08,07,48,15.70
2014,06,08,07,49,15.80
2014,06,08,07,50,15.80
2014,06,08,07,51,15.80
2014,06,08,07,52,15.90
2014,06,08,07,53,15.90
2014,06,08,07,54,16.00
2014,06,08,07,55,16.00
2014,06,08,07,56,16.00
2014,06,08,07,57,16.10
2014,06,08,07,58,16.10
2014,06,08,07,59,16.20
2014,06,08,08,00,16.20
2014,06,08,08,01,16.20
2014,06,08,08,02,16.30
2014,06,08,08,03,16.30
2014,06,08,08,04,16.30
2014,06,08,08,05,16.30
2014,06,08,08,06,16.40
2014,06,08,08,07,16.40
2014,06,08,08,08,16.50
2014,06,08,08,09,16.50
2014,06,08,08,10,16.60
2014,06,08,08,11,16.60
2014,06,08,08,12,16.70
2014,06,08,08,13,16.70
2014,06,08,08,14,16.70
2014,06,08,08,15,16.80
2014,06,08,08,16,16.80
2014,06,08,08,17,16.80
2014,06,08,08,18,16.80
2014,06,08,08,19,16.90
2014,06,08,08,20,16.90
2014,06,08,08,21,16.90
2014,06,08,08,22,16.90
2014,06,08,08,23,17.00
2014,06,08,08,24,17.00
2014,06,08,08,25,17.10
2014,06,08,08,26,17.10
2014,06,08,08,27,17.20
2014,06,08,08,28,17.30
2014,06,08,08,29,17.30
2014,06,08,08,30,17.40
2014,06,08,08,31,17.40
2014,06,08,08,32,17.50
2014,06,08,08,33,17.60
2014,06,08,08,34,17.60
2014,06,08,08,35,17.70
2014,06,08,08,36,17.70
2014,06,08,08,37,17.70
2014,06,08,08,38,17.70
2014,06,08,08,39,17.70
2014,06,08,08,40,17.70
2014,06,08,08,41,17.80
2014,06,08,08,42,17.80
2014,06,08,08,43,17.80
2014,06,08,08,44,17.80
2014,06,08,08,45,17.80
2014,06,08,08,46,17.80
2014,06,08,08,47,17.80
2014,06,08,08,48,17.80
2014,06,08,08,49,17.80
2014,06,08,08,50,17.90
2014,06,08,08,51,17.90
2014,06,08,08,52,17.90
2014,06,08,08,53,17.90
2014,06,08,08,54,17.90
2014,06,08,08,55,17.90
2014,06,08,08,56,17.90
2014,06,08,08,57,17.90
2014,06,08,08,58,17.90
2014,06,08,08,59,17.90
2014,06,08,09,00,17.90
2014,06,08,09,01,17.90
2014,06,08,09,02,18.00
2014,06,08,09,03,18.10
2014,06,08,09,04,18.10
2014,06,08,09,05,18.20
2014,06,08,09,06,18.20
2014,06,08,09,07,18.30
2014,06,08,09,08,18.30
2014,06,08,09,09,18.30
2014,06,08,09,10,18.40
2014,06,08,09,11,18.40
2014,06,08,09,12,18.50
2014,06,08,09,13,18.60
2014,06,08,09,14,18.60
2014,06,08,09,15,18.70
2014,06,08,09,16,18.70
2014,06,08,09,17,18.70
2014,06,08,09,18,18.80
2014,06,08,09,19,18.80
2014,06,08,09,20,18.80
2014,06,08,09,21,18.80
2014,06,08,09,22,18.80
2014,06,08,09,23,18.80
2014,06,08,09,24,18.80
2014,06,08,09,25,18.80
2014,06,08,09,26,18.80
2014,06,08,09,27,18.80
2014,06,08,09,28,18.80
2014,06,08,09,29,18.90
2014,06,08,09,30,18.90
2014,06,08,09,31,18.90
2014,06,08,09,32,18.90
2014,06,08,09,33,18.90
2014,06,08,09,34,18.90
2014,06,08,09,35,18.90
2014,06,08,09,36,18.90
2014,06,08,09,37,18.90
2014,06,08,09,38,19.00
2014,06,08,09,39,19.00
2014,06,08,09,40,19.00
2014,06,08,09,41,19.00
2014,06,08,09,42,19.00
2014,06,08,09,43,19.10
2014,06,08,09,44,19.10
2014,06,08,09,45,19.20
2014,06,08,09,46,19.20
2014,06,08,09,47,19.30
2014,06,08,09,48,19.40
2014,06,08,09,49,19.40
2014,06,08,09,50,19.40
2014,06,08,09,51,19.40
2014,06,08,09,52,19.40
2014,06,08,09,53,19.50
2014,06,08,09,54,19.50
2014,06,08,09,55,19.60
2014,06,08,09,56,19.60
2014,06,08,09,57,19.70
2014,06,08,09,58,19.70
2014,06,08,09,59,19.70
2014,06,08,10,00,19.80
2014,06,08,10,01,19.80
2014,06,08,10,02,19.80
2014,06,08,10,03,19.90
2014,06,08,10,04,19.90
2014,06,08,10,05,20.00
2014,06,08,10,06,20.00
2014,06,08,10,07,20.00
2014,06,08,10,08,20.00
2014,06,08,10,09,20.10
2014,06,08,10,10,20.10
2014,06,08,10,11,20.10
2014,06,08,10,12,20.20
2014,06,08,10,13,20.20
2014,06,08,10,14,20.30
2014,06,08,10,15,20.30
2014,06,08,10,16,20.30
2014,06,08,10,17,20.30
2014,06,08,10,18,20.40
2014,06,08,10,19,20.40
2014,06,08,10,20,20.40
2014,06,08,10,21,20.50
2014,06,08,10,22,20.40
2014,06,08,10,23,20.50
2014,06,08,10,24,20.50
2014,06,08,10,25,20.60
2014,06,08,10,26,20.60
2014,06,08,10,27,20.60
2014,06,08,10,28,20.60
2014,06,08,10,29,20.60
2014,06,08,10,30,20.60
2014,06,08,10,31,20.60
2014,06,08,10,32,20.60
2014,06,08,10,33,20.60
2014,06,08,10,34,20.60
2014,06,08,10,35,20.60
2014,06,08,10,36,20.60
2014,06,08,10,37,20.70
2014,06,08,10,38,20.70
2014,06,08,10,39,20.60
2014,06,08,10,40,20.50
2014,06,08,10,41,20.40
2014,06,08,10,42,20.30
2014,06,08,10,43,20.30
2014,06,08,10,44,20.20
2014,06,08,10,45,20.10
2014,06,08,10,46,20.00
2014,06,08,10,47,19.90
2014,06,08,10,48,19.90
2014,06,08,10,49,19.80
2014,06,08,10,50,19.80
2014,06,08,10,51,19.80
2014,06,08,10,52,19.80
2014,06,08,10,53,19.80
2014,06,08,10,54,19.90
2014,06,08,10,55,20.00
2014,06,08,10,56,20.00
2014,06,08,10,57,20.20
2014,06,08,10,58,20.20
2014,06,08,10,59,20.30
2014,06,08,11,00,20.30
2014,06,08,11,01,20.30
2014,06,08,11,02,20.20
2014,06,08,11,03,20.10
2014,06,08,11,04,20.00
2014,06,08,11,05,20.00
2014,06,08,11,06,19.90
2014,06,08,11,07,19.90
2014,06,08,11,08,19.90
2014,06,08,11,09,19.90
2014,06,08,11,10,19.80
2014,06,08,11,11,19.80
2014,06,08,11,12,19.80
2014,06,08,11,13,19.80
2014,06,08,11,14,19.80
2014,06,08,11,15,19.80
2014,06,08,11,16,19.90
2014,06,08,11,17,19.90
2014,06,08,11,18,19.90
2014,06,08,11,19,19.90
2014,06,08,11,20,19.90
2014,06,08,11,21,20.00
2014,06,08,11,22,19.90
2014,06,08,11,23,20.00
2014,06,08,11,24,20.10
2014,06,08,11,25,20.20
2014,06,08,11,26,20.40
2014,06,08,11,27,20.50
2014,06,08,11,28,20.50
2014,06,08,11,29,20.60
2014,06,08,11,30,20.70
2014,06,08,11,31,20.70
2014,06,08,11,32,20.70
2014,06,08,11,33,20.70
2014,06,08,11,34,20.70
2014,06,08,11,35,20.70
2014,06,08,11,36,20.80
2014,06,08,11,37,20.80
2014,06,08,11,38,20.80
2014,06,08,11,39,20.80
2014,06,08,11,40,20.80
2014,06,08,11,41,20.90
2014,06,08,11,42,21.00
2014,06,08,11,43,21.00
2014,06,08,11,44,21.10
2014,06,08,11,45,21.20
2014,06,08,11,46,21.20
2014,06,08,11,47,21.20
2014,06,08,11,48,21.20
2014,06,08,11,49,21.20
2014,06,08,11,50,21.20
2014,06,08,11,51,21.20
2014,06,08,11,52,21.30
2014,06,08,11,53,21.30
2014,06,08,11,54,21.40
2014,06,08,11,55,21.40
2014,06,08,11,56,21.50
2014,06,08,11,57,21.50
2014,06,08,11,58,21.50
2014,06,08,11,59,21.50
2014,06,08,12,00,21.50
2014,06,08,12,01,21.40
2014,06,08,12,02,21.30
2014,06,08,12,03,21.20
2014,06,08,12,04,21.10
2014,06,08,12,05,21.00
2014,06,08,12,06,20.90
2014,06,08,12,07,20.90
2014,06,08,12,08,20.90
2014,06,08,12,09,20.80
2014,06,08,12,10,20.70
2014,06,08,12,11,20.60
2014,06,08,12,12,20.70
2014,06,08,12,13,20.70
2014,06,08,12,14,20.80
2014,06,08,12,15,20.80
2014,06,08,12,16,20.90
2014,06,08,12,17,21.00
2014,06,08,12,18,21.00
2014,06,08,12,19,21.00
2014,06,08,12,20,21.00
2014,06,08,12,21,21.00
2014,06,08,12,22,21.10
2014,06,08,12,23,21.10
2014,06,08,12,24,21.00
2014,06,08,12,25,21.00
2014,06,08,12,26,21.10
2014,06,08,12,27,21.00
2014,06,08,12,28,21.00
2014,06,08,12,29,20.90
2014,06,08,12,30,20.90
2014,06,08,12,31,20.80
2014,06,08,12,32,20.80
2014,06,08,12,33,20.80
2014,06,08,12,34,20.80
2014,06,08,12,35,20.70
2014,06,08,12,36,20.70
2014,06,08,12,37,20.70
2014,06,08,12,38,20.70
2014,06,08,12,39,20.70
2014,06,08,12,40,20.70
2014,06,08,12,41,20.70
2014,06,08,12,42,20.70
2014,06,08,12,43,20.60
2014,06,08,12,44,20.60
2014,06,08,12,45,20.50
2014,06,08,12,46,20.30
2014,06,08,12,47,20.20
2014,06,08,12,48,20.10
2014,06,08,12,49,20.00
2014,06,08,12,50,20.00
2014,06,08,12,51,20.00
2014,06,08,12,52,20.00
2014,06,08,12,53,20.10
2014,06,08,12,54,20.10
2014,06,08,12,55,20.10
2014,06,08,12,56,20.10
2014,06,08,12,57,20.00
2014,06,08,12,58,20.00
2014,06,08,12,59,20.00
2014,06,08,13,00,20.10
2014,06,08,13,01,20.10
2014,06,08,13,02,20.10
2014,06,08,13,03,20.00
2014,06,08,13,04,19.90
2014,06,08,13,05,19.80
2014,06,08,13,06,19.70
2014,06,08,13,07,19.60
2014,06,08,13,08,19.60
2014,06,08,13,09,19.60
2014,06,08,13,10,19.60
2014,06,08,13,11,19.50
2014,06,08,13,12,19.40
2014,06,08,13,13,19.40
2014,06,08,13,14,19.40
2014,06,08,13,15,19.40
2014,06,08,13,16,19.40
2014,06,08,13,17,19.40
2014,06,08,13,18,19.40
2014,06,08,13,19,19.50
2014,06,08,13,20,19.50
2014,06,08,13,21,19.60
2014,06,08,13,22,19.70
2014,06,08,13,23,19.70
2014,06,08,13,24,19.80
2014,06,08,13,25,19.80
2014,06,08,13,26,19.90
2014,06,08,13,27,19.90
2014,06,08,13,28,20.00
2014,06,08,13,29,20.00
2014,06,08,13,30,20.10
2014,06,08,13,31,20.10
2014,06,08,13,32,20.00
2014,06,08,13,33,20.00
2014,06,08,13,34,20.00
2014,06,08,13,35,20.00
2014,06,08,13,36,20.00
2014,06,08,13,37,20.00
2014,06,08,13,38,19.90
2014,06,08,13,39,19.90
2014,06,08,13,40,19.90
2014,06,08,13,41,19.90
2014,06,08,13,42,19.80
2014,06,08,13,43,19.80
2014,06,08,13,44,19.80
2014,06,08,13,45,19.70
2014,06,08,13,46,19.70
2014,06,08,13,47,19.70
2014,06,08,13,48,19.70
2014,06,08,13,49,19.70
2014,06,08,13,50,19.70
2014,06,08,13,51,19.80
2014,06,08,13,52,19.80
2014,06,08,13,53,19.80
2014,06,08,13,54,19.80
2014,06,08,13,55,19.70
2014,06,08,13,56,19.60
2014,06,08,13,57,19.60
2014,06,08,13,58,19.60
2014,06,08,13,59,19.60
2014,06,08,14,00,19.70
2014,06,08,14,01,19.70
2014,06,08,14,02,19.80
2014,06,08,14,03,19.80
2014,06,08,14,04,19.70
2014,06,08,14,05,19.70
2014,06,08,14,06,19.70
2014,06,08,14,07,19.80
2014,06,08,14,08,19.90
2014,06,08,14,09,20.00
2014,06,08,14,10,20.00
2014,06,08,14,11,20.00
2014,06,08,14,12,20.00
2014,06,08,14,13,20.00
2014,06,08,14,14,20.10
2014,06,08,14,15,20.20
2014,06,08,14,16,20.30
2014,06,08,14,17,20.40
2014,06,08,14,18,20.40
2014,06,08,14,19,20.30
2014,06,08,14,20,20.30
2014,06,08,14,21,20.20
2014,06,08,14,22,20.20
2014,06,08,14,23,20.10
2014,06,08,14,24,20.10
2014,06,08,14,25,20.10
2014,06,08,14,26,20.00
2014,06,08,14,27,20.00
2014,06,08,14,28,20.00
2014,06,08,14,29,20.00
2014,06,08,14,30,20.00
2014,06,08,14,31,19.90
2014,06,08,14,32,19.80
2014,06,08,14,33,19.80
2014,06,08,14,34,19.70
2014,06,08,14,35,19.60
2014,06,08,14,36,19.50
2014,06,08,14,37,19.50
2014,06,08,14,38,19.40
2014,06,08,14,39,19.40
2014,06,08,14,40,19.30
2014,06,08,14,41,19.30
2014,06,08,14,42,19.30
2014,06,08,14,43,19.20
2014,06,08,14,44,19.30
2014,06,08,14,45,19.30
2014,06,08,14,46,19.40
2014,06,08,14,47,19.50
2014,06,08,14,48,19.50
2014,06,08,14,49,19.50
2014,06,08,14,50,19.50
2014,06,08,14,51,19.60
2014,06,08,14,52,19.70
2014,06,08,14,53,19.70
2014,06,08,14,54,19.70
2014,06,08,14,55,19.70
2014,06,08,14,56,19.70
2014,06,08,14,57,19.70
2014,06,08,14,58,19.70
2014,06,08,14,59,19.80
2014,06,08,15,00,20.00
2014,06,08,15,01,20.10
2014,06,08,15,02,20.20
2014,06,08,15,03,20.20
2014,06,08,15,04,20.20
2014,06,08,15,05,20.20
2014,06,08,15,06,20.20
2014,06,08,15,07,20.20
2014,06,08,15,08,20.30
2014,06,08,15,09,20.30
2014,06,08,15,10,20.40
2014,06,08,15,11,20.40
2014,06,08,15,12,20.40
2014,06,08,15,13,20.40
2014,06,08,15,14,20.50
2014,06,08,15,15,20.50
2014,06,08,15,16,20.50
2014,06,08,15,17,20.50
2014,06,08,15,18,20.60
2014,06,08,15,19,20.50
2014,06,08,15,20,20.50
2014,06,08,15,21,20.40
2014,06,08,15,22,20.40
2014,06,08,15,23,20.40
2014,06,08,15,24,20.40
2014,06,08,15,25,20.30
2014,06,08,15,26,20.30
2014,06,08,15,27,20.40
2014,06,08,15,28,20.30
2014,06,08,15,29,20.30
2014,06,08,15,30,20.20
2014,06,08,15,31,20.30
2014,06,08,15,32,20.30
2014,06,08,15,33,20.40
2014,06,08,15,34,20.40
2014,06,08,15,35,20.40
2014,06,08,15,36,20.30
2014,06,08,15,37,20.20
2014,06,08,15,38,20.10
2014,06,08,15,39,20.00
2014,06,08,15,40,20.00
2014,06,08,15,41,20.00
2014,06,08,15,42,19.90
2014,06,08,15,43,19.90
2014,06,08,15,44,19.80
2014,06,08,15,45,19.80
2014,06,08,15,46,19.80
2014,06,08,15,47,19.70
2014,06,08,15,48,19.60
2014,06,08,15,49,19.60
2014,06,08,15,50,19.50
2014,06,08,15,51,19.60
2014,06,08,15,52,19.60
2014,06,08,15,53,19.70
2014,06,08,15,54,19.70
2014,06,08,15,55,19.70
2014,06,08,15,56,19.80
2014,06,08,15,57,19.80
2014,06,08,15,58,19.80
2014,06,08,15,59,19.80
2014,06,08,16,00,19.80
2014,06,08,16,01,19.90
2014,06,08,16,02,19.90
2014,06,08,16,03,19.90
2014,06,08,16,04,19.80
2014,06,08,16,05,19.80
2014,06,08,16,06,19.80
2014,06,08,16,07,19.80
2014,06,08,16,08,19.70
2014,06,08,16,09,19.70
2014,06,08,16,10,19.60
2014,06,08,16,11,19.60
2014,06,08,16,12,19.60
2014,06,08,16,13,19.50
2014,06,08,16,14,19.50
2014,06,08,16,15,19.40
2014,06,08,16,16,19.50
2014,06,08,16,17,19.40
2014,06,08,16,18,19.40
2014,06,08,16,19,19.40
2014,06,08,16,20,19.40
2014,06,08,16,21,19.40
2014,06,08,16,22,19.50
2014,06,08,16,23,19.50
2014,06,08,16,24,19.60
2014,06,08,16,25,19.70
2014,06,08,16,26,19.80
2014,06,08,16,27,19.80
2014,06,08,16,28,19.90
2014,06,08,16,29,20.00
2014,06,08,16,30,20.10
2014,06,08,16,31,20.10
2014,06,08,16,32,20.10
2014,06,08,16,33,20.20
2014,06,08,16,34,20.20
2014,06,08,16,35,20.30
2014,06,08,16,36,20.30
2014,06,08,16,37,20.40
2014,06,08,16,38,20.40
2014,06,08,16,39,20.50
2014,06,08,16,40,20.50
2014,06,08,16,41,20.50
2014,06,08,16,42,20.50
2014,06,08,16,43,20.40
2014,06,08,16,44,20.40
2014,06,08,16,45,20.40
2014,06,08,16,46,20.40
2014,06,08,16,47,20.40
2014,06,08,16,48,20.40
2014,06,08,16,49,20.40
2014,06,08,16,50,20.40
2014,06,08,16,51,20.40
2014,06,08,16,52,20.40
2014,06,08,16,53,20.40
2014,06,08,16,54,20.50
2014,06,08,16,55,20.50
2014,06,08,16,56,20.50
2014,06,08,16,57,20.50
2014,06,08,16,58,20.50
2014,06,08,16,59,20.50
2014,06,08,17,00,20.40
2014,06,08,17,01,20.40
2014,06,08,17,02,20.40
2014,06,08,17,03,20.40
2014,06,08,17,04,20.30
2014,06,08,17,05,20.30
2014,06,08,17,06,20.40
2014,06,08,17,07,20.40
2014,06,08,17,08,20.40
2014,06,08,17,09,20.50
2014,06,08,17,10,20.50
2014,06,08,17,11,20.50
2014,06,08,17,12,20.60
2014,06,08,17,13,20.60
2014,06,08,17,14,20.50
2014,06,08,17,15,20.50
2014,06,08,17,16,20.60
2014,06,08,17,17,20.50
2014,06,08,17,18,20.50
2014,06,08,17,19,20.60